Meteo Giornale » Osservazioni meteo Stati Uniti (USA) » Pampa
ore: 01:30 - Osservazioni Meteo Pampa
Lat. 35° 37' N Lon. 101° 0' W Alt. 989 metri s.l.m.
26 °C
Sereno
Temp. 24 Ore
21 °C
37 °C
Sud/Sud-Est
18.5 Km/h
Dew point 13 °C
Umidità 44 %
Visibilità 10 Km
Il sole sorge alle ore 07:16
Il sole tramonta alle ore 20:11
| Data e Ora | Cielo e Fenomeni | T °C | DP °C | Um. % | Pres. hPa | Vis. km | Vento km/h | |
|---|---|---|---|---|---|---|---|---|
| Oggi h: 01:30 | Sereno | 26 | 13 | 44 | 1019 | 10 | S/SE 18.5 | |
| Oggi h: 01:10 | Sereno | 26 | 13 | 44 | 1019 | 10 | S/SE 18.5 | |
| Oggi h: 00:50 | Sereno | 26 | 14 | 47 | 1019 | 10 | S/SE 16.7 | |
| Oggi h: 00:30 | Sereno | 26 | 14 | 47 | 1019 | 10 | S/SE 16.7 | |
| Oggi h: 00:10 | Sereno | 27 | 14 | 44 | 1019 | 10 | S/SE 20.3 | |
| Ieri h: 23:50 | Sereno | 27 | 14 | 44 | 1019 | 10 | S/SE 20.3 | |
| Ieri h: 23:30 | Sereno | 27 | 14 | 44 | 1019 | 10 | S/SE 18.5 | |
| Ieri h: 23:10 | Sereno | 27 | 14 | 44 | 1019 | 10 | SE 18.5 | |
| Ieri h: 22:50 | Sereno | 28 | 14 | 42 | 1019 | 10 | SE 18.5 | |
| Ieri h: 22:30 | Sereno | 28 | 15 | 45 | 1019 | 10 | SE 16.7 | |
| Ieri h: 22:10 | Sereno | 28 | 15 | 45 | 1018 | 10 | SE 20.3 | |
| Ieri h: 21:50 | Sereno | 28 | 15 | 45 | 1018 | 10 | SE 18.5 | |
| Ieri h: 21:30 | Sereno | 29 | 15 | 42 | 1018 | 10 | SE 16.7 | |
| Ieri h: 21:10 | Sereno | 29 | 15 | 42 | 1017 | 10 | SE 20.3 | |
| Ieri h: 20:50 | Sereno | 30 | 15 | 40 | 1017 | 10 | SE 22.2 | |
| Ieri h: 20:30 | Sereno | 30 | 14 | 37 | 1017 | 10 | SE 18.5 | |
| Ieri h: 20:10 | Sereno | 31 | 14 | 35 | 1016 | 10 | S/SE 16.7 | |
| Ieri h: 19:50 | Sereno | 32 | 14 | 33 | 1016 | 10 | S/SE 20.3 | |
| Ieri h: 19:30 | Sereno | 33 | 13 | 29 | 1016 | 10 | S/SE 18.5 | |
| Ieri h: 19:10 | Sereno | 34 | 14 | 30 | 1016 | 10 | S/SE 20.3 | |
| Ieri h: 18:50 | Sereno | 35 | 12 | 24 | 1016 | 10 | S/SE 18.5 | |
| Ieri h: 18:30 | Sereno | 35 | 12 | 24 | 1016 | 10 | S 20.3 | |
| Ieri h: 18:10 | Sereno | 36 | 13 | 25 | 1016 | 10 | S/SE 22.2 | |
| Ieri h: 17:50 | Sereno | 36 | 13 | 25 | 1016 | 10 | SE 20.3 | |
| Ieri h: 17:30 | Sereno | 36 | 13 | 25 | 1016 | 10 | S/SE 14.8 | |
| Ieri h: 17:10 | Sereno | 36 | 13 | 25 | 1016 | 10 | S 16.7 | |
| Ieri h: 16:50 | Sereno | 37 | 13 | 23 | 1016 | 10 | SE 20.3 | |
| Ieri h: 16:30 | Sereno | 37 | 13 | 23 | 1017 | 10 | S 16.7 | |
| Ieri h: 16:10 | Sereno | 37 | 13 | 23 | 1017 | 10 | S 14.8 | |
| Ieri h: 15:50 | Nuvoloso | 37 | 14 | 25 | 1017 | 10 | S/SE 18.5 | |
| Ieri h: 15:30 | Nuvoloso | 37 | 14 | 25 | 1017 | 10 | S 11.1 | |
| Ieri h: 15:10 | Nuvoloso | 37 | 14 | 25 | 1018 | 10 | S/SE 20.3 | |
| Ieri h: 14:50 | Nuvoloso | 36 | 14 | 26 | 1018 | 10 | S 20.3 | |
| Ieri h: 14:30 | Sereno | 36 | 14 | 26 | 1018 | 10 | SO 11.1 | |
| Ieri h: 14:10 | Sereno | 36 | 14 | 26 | 1018 | 10 | S 16.7 | |
| Ieri h: 13:50 | Sereno | 36 | 14 | 26 | 1018 | 10 | S 13 | |
| Ieri h: 13:30 | Sereno | 36 | 14 | 26 | 1018 | 10 | S 24 | |
| Ieri h: 13:10 | Sereno | 36 | 15 | 28 | 1019 | 10 | S/SO 18.5 | |
| Ieri h: 12:50 | Sereno | 36 | 15 | 28 | 1019 | 10 | S/SO 22.2 | |
| Ieri h: 12:30 | Sereno | 35 | 15 | 30 | 1019 | 10 | SO 25.9 | |
| Ieri h: 12:10 | Sereno | 34 | 16 | 34 | 1019 | 10 | SO 22.2 | |
| Ieri h: 11:50 | Sereno | 34 | 16 | 34 | 1019 | 10 | SO 25.9 | |
| Ieri h: 11:30 | Sereno | 33 | 16 | 36 | 1019 | 10 | S/SO 24 | |
| Ieri h: 11:10 | Sereno | 33 | 15 | 33 | 1019 | 10 | SO 24 | |
| Ieri h: 10:50 | Sereno | 32 | 15 | 35 | 1019 | 10 | SO 29.6 | |
| Ieri h: 10:30 | Sereno | 32 | 15 | 35 | 1019 | 10 | SO 29.6 | |
| Ieri h: 10:10 | Sereno | 31 | 15 | 37 | 1019 | 10 | S/SO 22.2 | |
| Ieri h: 09:50 | Sereno | 31 | 15 | 37 | 1019 | 10 | S/SO 22.2 | |
| Ieri h: 09:30 | Sereno | 29 | 14 | 39 | 1019 | 10 | S/SO 22.2 | |
| Ieri h: 09:10 | Sereno | 28 | 15 | 45 | 1019 | 10 | S/SO 22.2 | |
| Ieri h: 08:50 | Sereno | 26 | 15 | 50 | 1019 | 10 | S 22.2 | |
| Ieri h: 08:30 | Sereno | 25 | 15 | 53 | 1019 | 10 | S 18.5 | |
| Ieri h: 08:10 | Sereno | 23 | 15 | 60 | 1019 | 10 | S 13 | |
| Ieri h: 07:50 | Sereno | 22 | 15 | 64 | 1018 | 10 | S 13 | |
| Ieri h: 07:30 | Sereno | 21 | 15 | 68 | 1018 | 10 | S 7.4 | |
| Ieri h: 07:10 | Sereno | 21 | 15 | 68 | 1018 | 10 | S 13 | |
| Ieri h: 06:50 | Sereno | 21 | 15 | 68 | 1018 | 10 | S 9.3 | |
| Ieri h: 06:30 | Sereno | 22 | 15 | 64 | 1017 | 10 | S 11.1 | |
| Ieri h: 06:10 | Sereno | 22 | 15 | 64 | 1017 | 10 | S 14.8 | |
| Ieri h: 05:50 | Sereno | 22 | 15 | 64 | 1017 | 10 | S 16.7 | |
| Ieri h: 05:30 | Sereno | 22 | 15 | 64 | 1017 | 10 | S 14.8 | |
| Ieri h: 05:10 | Sereno | 22 | 15 | 64 | 1017 | 10 | S 14.8 | |
| Ieri h: 04:50 | Sereno | 23 | 15 | 60 | 1017 | 10 | S 16.7 | |
| Ieri h: 04:30 | Sereno | 23 | 14 | 56 | 1017 | 10 | S 14.8 | |
| Ieri h: 04:10 | Sereno | 25 | 14 | 50 | 1017 | 10 | S 13 | |
| Ieri h: 03:50 | Sereno | 25 | 14 | 50 | 1016 | 10 | S 16.7 | |
| Ieri h: 03:30 | Sereno | 26 | 14 | 47 | 1016 | 10 | S 18.5 | |
| Ieri h: 03:10 | Sereno | 26 | 14 | 47 | 1016 | 10 | S 18.5 | |
| Ieri h: 02:50 | Sereno | 26 | 14 | 47 | 1016 | 10 | S 20.3 | |



